Kuafu-1

operational
NORAD ID: 54029 Int'l Des: 2022-129 Owner: CAS Country: CN
LEOCIRCULARRETROGRADESSO

关于 Kuafu-1

正在加载描述...

实时位置

正在加载3D地球...

即将过境

高度历史

Altitude vs Time

uPlot chart will show altitude changes over time

两行轨道根数

1 54029U 22129A 26061.16869773 .00000235 00000-0 69019-4 0 9997
2 54029 98.2778 67.7747 0015448 63.9322 296.3461 14.52007237179894
Epoch: Mar 2, 2026 • Age: 25 hours

当前状态

高度 722.6 km
速度 7.50 km/s
星下点 40.15°N, 86.82°E
发射日期 Oct 8, 2022
运行时间 3.4 years
类型 other

技术详情

分类 Payload
质量 888.00 kg
干质量 888.00 kg
总质量 888.00 kg
长度 2.00 m
直径 1.50 m
跨度 3.50 m
形状 Box + 2 pan
制造商 CAST
平台类型 ASO-S
阶段状态 In Orbit
所有者/国家 CAS/CN

大型星座

Loading constellations...